Location: Colorado Springs
(38.8340°N, 104.8210°W)
Time: 12:39:20
(UTC-06:00)

Tiangong 1 - Pass Details

Date: 12 October 2017
Orbit: 294 x 320 km, 42.8° (Epoch: 18 October)

Event Time Altitude Azimuth Distance (km) Brightness Sun altitude
Rises 19:12:21 0° 288° (WNW) 2,043 6.3 -10.1°
Reaches altitude 10° 19:14:25 10° 297° (WNW) 1,208 4.6 -10.5°
Maximum altitude 19:16:58 37° 8° (N) 503 1.6 -11.0°
Enters shadow 19:18:27 19° 67° (ENE) 811 2.1 -11.3°
